Hourly Data Report for October 29, 2016

All times are specified in Local Standard Time (LST). Add 1 hour to adjust for Daylight Saving Time where and when it is observed.

OTTAWA INTL A
ONTARIO

45°19'00.000" N
75°40'00.000" W
114.90 m
6106001
71628
YOW

Download Data

Hourly Data (October 2016)
Hourly Data Report for October 29, 2016
Temp Definition
°C
Dew Point Temp Definition
°C
Rel Hum Definition
%
Wind Dir Definition
10's deg

Wind Spd Definition
km/h
Visibility Definition
km
Stn Press Definition
kPa
Hmdx Definition


Wind Chill Definition


Weather Definition


TIME
00:00 Legend Double Dagger 1.0 0.3 95 18 6 24.1 100.75     Rain
01:00 Legend Double Dagger 0.9 0.5 97 15 10 16.1 100.64     Rain
02:00 Legend Double Dagger 1.4 1.0 97 14 14 16.1 100.51     LegendNANA
03:00 Legend Double Dagger 1.8 1.2 96 14 13 16.1 100.31     Rain
04:00 Legend Double Dagger 2.2 1.6 96 12 16 16.1 100.13     Rain
05:00 Legend Double Dagger 2.5 2.1 97 9 13 16.1 100.07     Drizzle
06:00 Legend Double Dagger 2.7 2.3 97 10 14 16.1 99.98     Rain
07:00 Legend Double Dagger 2.8 2.4 97 10 16 16.1 99.88     Rain
08:00 Legend Double Dagger 2.8 2.4 97 10 16 16.1 99.75     LegendNANA
09:00 Legend Double Dagger 3.0 2.4 96 10 14 16.1 99.68     Rain
10:00 Legend Double Dagger 3.5 2.6 94 13 9 16.1 99.58     Rain
11:00 Legend Double Dagger 3.8 3.4 97 9 12 16.1 99.49     Rain
12:00 Legend Double Dagger 4.0 3.7 98 8 11 4.8 99.37     Rain
13:00 Legend Double Dagger 4.4 4.3 99 9 9 4.8 99.27     Rain,Fog
14:00 Legend Double Dagger 5.0 4.9 99 9 8 4.8 99.19     Rain,Fog
15:00 Legend Double Dagger 5.6 5.5 99 3 4 4.8 99.19     Drizzle,Fog
16:00 Legend Double Dagger 6.1 5.8 98 33 5 12.9 99.21     Mostly Cloudy
17:00 Legend Double Dagger 6.3 6.2 99 36 4 12.9 99.27     LegendNANA
18:00 Legend Double Dagger 7.6 7.5 99 26 14 16.1 99.38     LegendNANA
19:00 Legend Double Dagger 8.6 8.0 96 28 26 16.1 99.49     Mostly Cloudy
20:00 Legend Double Dagger 8.3 7.6 95 27 13 16.1 99.59     LegendNANA
21:00 Legend Double Dagger 7.9 7.2 95 30 17 24.1 99.68     LegendNANA
22:00 Legend Double Dagger 7.6 7.0 96 29 13 24.1 99.72     Cloudy
23:00 Legend Double Dagger 6.9 6.2 95 28 9 24.1 99.76     LegendNANA

Notes on Data Quality.

Legend

  • E = Estimated
  • M = Missing
  • NA = Not Available
  • ‡ = Partner data that is not subject to review by the National Climate Archives
Date modified: